User: anonymous   Login
Location: Valdosta
(30.8330°N, 83.2790°W)
Time: 06:51:57
(UTC-05:00)
Language:

Oscar 19 - Orbit

View from above orbital plane
View from above orbital plane
View from above satellite
View from above satellite

Ground track
Ground track

The orbit data is extracted from the following two-line orbital elements,

1 20442U 90005G   16345.53092103  .00000022  00000-0  24106-4 0  9999
2 20442  98.5593 278.1295 0011620 350.8225   9.2745 14.32841899404602
Epoch (UTC): 10 December 2016 12:44:31
Eccentricity: 0.0011620
inclination: 98.5593°
perigee height: 774 km
apogee height: 790 km
right ascension of ascending node: 278.1295°
argument of perigee: 350.8225°
revolutions per day: 14.32841899
mean anomaly at epoch: 9.2745°
orbit number at epoch: 40460

The dashed part of the orbit path shows where the satellite is in the earth's shadow,  

DLR